Вернуться в каталог

STARLINK-3071

АктивенСвязьVLEO
NORAD 49147·PAYLOAD·🇺🇸 United States

Запущен Sep 14, 2021 с Vandenberg Space Force Base

Loading…

Ближайшие Пролёты (ближайшие 24 часа)

TLE

СвежийSource: CelesTrak SupGP

Эпоха: Sep 15, 2026, 01:37 UTC

1 49147C 21082T   26258.06784722  .00035735  00000+0  29949-2 0  2582
2 49147  70.0003 136.9683 0002699 274.1757 120.3458 14.98311879    17

Отслеживайте STARLINK-3071 в реальном времени с AllMySat

Download on the App Store